National Weather Service United States Department of Commerce

Beach Hazards, Showers and Storms Possible Late Tonight - Wed

An approaching cold front will bring increasingly windy conditions, kicking up waves of 4 to 7 feet along US-2 beaches tonight and Wednesday. This same front will also bring a chance of showers and perhaps a storm or two late tonight over eastern Upper... Read More >

Observations from across/near northern Michigan

Marine Observations

Michigan Hourly Observations

 

Yesterday's high, low and precipitation reports from across northern Michigan

Northern Michigan Temperatures and Precipitation

 

Observation Text Products


738
SXUS83 KAPX 260426
OMRAPX

Marine Observations
National Weather Service Gaylord MI
1226 AM EDT Wed Jul 26 2017

WIND DATA (KTS) WAVES
SITE DATE/TIME DIR SPEED GUST (FT) SITE NAME
--------------------------------------------------

Lake Superior/St Marys River

GRMM4 260340Z 210 22 28 Grand Marais
WFPM4 260340Z 170 13 16 Whitefish Point
PTIM4 260400Z 130 3 4 Point Iroquois
CYAM 260400Z CALM SOO (Canada)
KANJ 260355Z 130 3 Sault Ste Marie
SWPM4 260400Z 120 5 6 S.W. Pier
LTRM4 260400Z 140 3 4 Little Rapids
RCKM4 260400Z 150 4 5 Rock Cut
WNEM4 260400Z 150 4 6 West Nebish Island

Lake Huron

DTLM4 260400Z 190 6 9 DeTour Village
KDRM 260414Z 160 6 Drummond Island
KMCD 260416Z 230 6 Mackinac Island
MACM4 260400Z 240 4 6 Mackinac City
KSLH 260413Z 240 4 Cheboygan Airport
CYGM4 260355Z 190 1 Cheboygan Marina
SRLM4 260400Z 170 15 Spectacle Reef Light
KPZQ 260415Z 200 5 Rogers City
PRIM4 260355Z 190 10 15 Presque Isle Light
KAPN 260354Z 200 4 Alpena Guard Base
APNM4 260410Z 220 11 13 Alpena Harbor Light
TBIM4 260350Z 180 10 12 Thunder Bay Island
45162 260400Z 190 12 14 1.3 Thunder Bay Buoy
SPTM4 260355Z 190 4 10 Sturgeon Point Light
KOSC 260414Z 260 4 Oscoda
TAWM4 260340Z 160 7 10 Tawas Point
GSLM4 260400Z 150 17 22 Gravelly Shoals
45003 260350Z 160 12 14 1.0 Northern Lake Huron Buoy
45008 260350Z 150 10 12 0.7 Central Lake Huron Buoy
45163 260400Z 160 14 16 1.3 Saginaw Bay Buoy

Lake Michigan

45175 260420Z 240 6 8 0.3 Mackinac Straits West Buoy
45002 260350Z 200 19 23 2.6 Northern Lake Michigan Buoy
KISQ 260414Z 190 11 19 Manistique
PNLM4 260400Z 210 17 21 Port Inland
NABM4 260340Z 190 12 14 Naubinway
WSLM4 260400Z 190 7 White Shoal Light
KSJX 260416Z 220 10 15 St James
KPLN 260354Z CALM Pellston
KMGN 260415Z CALM Harbor Springs
45022 260420Z 200 6 0.7 Little Traverse Bay Buoy
KCVX 260414Z 200 5 Charlevoix
GTLM4 260340Z 230 7 11 Grand Traverse Light
KTVC 260353Z CALM Traverse City
KFKS 260415Z 190 6 14 Frankfort
MEEM4 260340Z 180 11 13 Manistee Harbor
BSBM4 260340Z 180 9 13 Big Sable Point
LDTM4 260400Z 190 11 15 Ludington
KLDM 260415Z 210 8 Ludington Airport
45024 260420Z 180 16 19 1.6 Buoy near Ludington



000
ASUS43 KDTX 260410
RWRMI
MICHIGAN HOURLY REGIONAL WEATHER ROUNDUP
NATIONAL WEATHER SERVICE DETROIT/PONTIAC MI
1200 AM EDT WED JUL 26 2017

NOTE: "FAIR" INDICATES FEW OR NO CLOUDS BELOW 12,000 FEET WITH NO
SIGNIFICANT WEATHER AND/OR OBSTRUCTION TO VISIBILITY.

MIZ047>049-052>055-059>063-066>070-074>076-081>083-260500-
SOUTHEAST LOWER MICHIGAN

CITY SKY/WX TMP DP RH WIND PRES REMARKS
ADRIAN CLEAR 63 57 81 S5 30.21R
ALMA PTCLDY 58 54 86 CALM 30.18R
ANN ARBOR CLEAR 60 59 96 SE3 30.20R
BAD AXE CLOUDY 60 56 89 S5 30.19R
CARO CLEAR 60 54 80 CALM 30.18R
DETROIT CITY CLEAR 66 60 81 S5 30.20S
DETROIT PTCLDY 67 63 87 SE5 30.21R
FLINT CLEAR 64 56 75 S5 30.20R
GROSSE ILE CLEAR 68 59 71 CALM 30.19R
HILLSDALE MOCLDY 63 55 77 SE3 30.20F
HOWELL CLEAR 65 59 80 S6 30.20R

CITY SKY/WX TMP DP RH WIND PRES REMARKS
JACKSON CLEAR 66 55 67 S6 30.20R
LAMBERTVILLE CLEAR 61 60 96 CALM 30.20R
LANSING CLEAR 67 54 63 S8 30.19R
LAPEER FAIR 63 56 78 SE3 30.20R
MASON CLEAR 60 57 87 CALM 30.19S
MONROE CLEAR 62 57 84 CALM 30.19R
MT. CLEMENS CLEAR 63 62 94 SE7 30.18R
PONTIAC CLEAR 67 61 81 S5 30.19S
PORT HOPE N/A 63 59 87 VRB5 30.17R
PORT HURON N/A 59 57 94 CALM 30.20F FOG
TRI CITIES CLEAR 67 57 70 S7 30.18S
MIDLAND FAIR 60 56 87 CALM 30.17R
TROY CLEAR 69 60 74 S6 30.22S
SAGINAW HB CLEAR 61 55 82 SE5 30.17S
$$
MIZ043>046-050>051-056>058-064>065-071>073-077>080-260500-
SOUTHWEST LOWER MICHIGAN

CITY SKY/WX TMP DP RH WIND PRES REMARKS
BATTLE CREEK CLEAR 67 57 70 S6 30.19F
BENTON HARBOR CLEAR 62 58 86 CALM 30.16F
BIG RAPIDS CLEAR 61 54 77 CALM 30.18R
COLDWATER CLEAR 63 60 91 CALM 30.19F
FREMONT FAIR 63 60 90 CALM 30.18R
HOLLAND PTCLDY 66 58 75 SE3 30.17S
GRAND RAPIDS MOCLDY 66 57 72 S5 30.18R
IONIA FAIR 65 54 67 S5 30.17S
KALAMAZOO CLEAR 68 55 63 S5 30.18F
LUDINGTON CLOUDY 70 55 59 SW9 30.15S
MARSHALL CLEAR 66 57 74 S3 30.20R
MOUNT PLEASANT CLEAR 62 57 84 CALM 30.18R
MUSKEGON CLOUDY 68 58 70 CALM 30.17R
SOUTH HAVEN PTCLDY 62 60 91 CALM 30.16F
$$
MIZ016>042-260500-
NORTHERN LOWER MICHIGAN

CITY SKY/WX TMP DP RH WIND PRES REMARKS
ALPENA PTCLDY 64 57 78 S5 30.16R
BEAVER ISLAND MOCLDY 69 61 77 SW9G21 30.12F
BELLAIRE PTCLDY 71 56 60 S3 30.15R
CADILLAC CLOUDY 68 55 63 SW6 30.18R
CHARLEVOIX PTCLDY 66 63 90 SW7 30.17R
FRANKFORT CLOUDY 72 53 51 S6 30.14S
GAYLORD PTCLDY 68 54 60 S7 30.17R
GRAYLING PTCLDY 61 54 78 CALM 30.19R
HARBOR SPRINGS PTCLDY 63 59 87 CALM 30.13S
HOUGHTON LAKE CLEAR 67 56 67 S8 30.19R
MANISTEE CLOUDY 68 55 63 CALM 30.14S
OSCODA CLOUDY 58 54 84 SW3 30.17R
PELLSTON PTCLDY 62 59 90 CALM 30.13R
ROGERS CITY PTCLDY 65 56 71 S5 30.15R
TRAVERSE CITY MOCLDY 71 60 68 CALM 30.15R
$$
MIZ007>008-015-260500-
EASTERN UPPER MICHIGAN

CITY SKY/WX TMP DP RH WIND PRES REMARKS
KINROSS MOCLDY 61 56 83 S5 30.11R
MACKINAC ISLAN CLOUDY 64 62 93 SW5 30.11R
NEWBERRY CLOUDY 65 63 94 S8 30.08F
S. S. MARIE MOCLDY 63 55 75 SE3 30.10R
MUNISING N/A 69 59 70 S13G22 30.01F
$$
MIZ004>006-011>014-085-260500-
CENTRAL UPPER MICHIGAN

CITY SKY/WX TMP DP RH WIND PRES REMARKS
MANISTIQUE CLOUDY 68 61 80 SW13G18 30.07F
ESCANABA CLOUDY 68 62 81 S14G22 30.05F
MENOMINEE CLOUDY 66 63 90 VRB3 30.07F
SAWYER-GWINN CLOUDY 65 61 85 S15 30.04S
$$
MIZ001>003-009>011-084-260500-
WESTERN UPPER MICHIGAN

CITY SKY/WX TMP DP RH WIND PRES REMARKS
IRON MOUNTAIN CLOUDY 68 61 78 S8 30.03F
HOUGHTON LGT RAIN 72 58 61 SW9G21 29.95F
COPPER HARBOR N/A 73 58 59 SW9G18 29.93F
IRONWOOD CLOUDY 71 63 75 S14G21 29.95F
$$

ABBREVIATIONS USED IN REMARKS
TC - TEMPERATURE IN CELSIUS
WCI - WIND CHILL INDEX
HX - HEAT INDEX
VSB - VISIBILITY




000
ASUS63 KAPX 260057
RTPAPX


Eastern Upper/Northern Lower Michigan Temperature and Precip Summary
National Weather Service Gaylord MI
857 PM EDT Tue Jul 25 2017

18 hour High/Low Temperature ending 8 pm EDT
24 hour Precipitation/Snowfall ending 8 pm EDT
Snow Depth observed at 8 pm EDT

.BR APX 0725 ES DH19/TAIRZS/TAIRZI/PPDRZZ/SFDRZZ/SDIRZZ
:..................................................................
: MAX MIN 24 HR SNOW SNOW
:ID LOCATION TEMP TEMP PRECIP FALL DEPTH
:..................................................................
ANJ : Sault Ste Marie : 79 / 51 / 0.00 / 0.0 / 0.0
APN : Alpena : 78 / 50 / 0.00 / 0.0 / 0.0
HTL : Houghton Lake : 80 / 47 / 0.00 / 0.0 / 0.0
PLN : Pellston : 81 / 45 / 0.00 / /
TVC : Traverse City : 83 / 50 / 0.00 / /
GLR : Gaylord : 81 / 47 / 0.00 / /
.END

Cooperative Observations
Temperature/Precipitation/Snowfall values are for 24 hour period
ending 8 pm EDT. Snow Depth is observed at 8 pm EDT.
...................................................................
OBS MAX MIN SNOW SNOW
ID LOCATION TIME TEMP TEMP PCPN FALL DEPTH
...................................................................
ONAM4: Onaway 4N :DH1800/ 82 / 47 / 0.00 / 0.0 / 0.0
PICM4: Pickford 3NE :DH1800/ 78 / 45 / 0.00 / 0.0 / 0.0

These data are preliminary and have not undergone final quality
control by the National Climatic Data Center. Therefore...these
data are subject to revision. Final and certified climate data
can be accessed at www.ncdc.noaa.gov.

&&

The following are supplemental temperature and precipitation data.
This includes data which are received from non-National Weather
Service maintained observing systems...as well as reports from
public weather spotters. Data is only partially quality controlled
and is not suitable for official climatological records.

.BR APX 0725 ES DH19/TAIRZS/TAIRZI
:
:Automated Temperature Data--18 hr High/Low ending 8 pm EDT
:..................................................................
: MAX MIN
:ID LOCATION TEMP TEMP
:..................................................................
:
ERY : Newberry : 74 / 45
CIU : Kinross : 77 / 50
MCD : Mackinac Island : 73 / 54
DRM : Drummond Island : 74 / 51
SJX : Beaver Island : 76 / 48
SLH : Cheboygan : 78 / 47
PZQ : Rogers City : 77 / 51
CVX : Charlevoix : 78 / 54
MGN : Harbor Springs : 79 / 51
ACB : Bellaire : 80 / 46
FKS : Frankfort : 75 / 49
GOV : Grayling AAF : 80 / 43
MBL : Manistee : 77 / 50
CAD : Cadillac : 81 / 47
Y31 : West Branch : 80 / 46
OSC : Oscoda : 75 / 50
LDM : Ludington : 75 / 51
RQB : Big Rapids : 78 / 52
MOP : Mount Pleasant : 80 / 55
IKW : Midland : 81 / 49
.END

U.S. Forest Service Remote Automated Weather Stations (RAWS)
Data is only partially quality controlled
18 hour High/Low Temperature ending 8 pm EDT
Minimum Relative Humidity over past 18 hours
12/24 hour Precipitation ending 8 pm EDT
...................................................................
MAX MIN MIN 12 HR 24 HR
ID LOCATION TEMP TEMP RH PRECIP PRECIP
...................................................................
AGRM4: Alger RAWS : 78 / 46 / 39 / 0.00 / 0.00
ATAM4: Atlanta RAWS : 83 / 40 / 32 / 0.00 / 0.00
BCYM4: Barton City RAWS : 78 / 47 / 45 / 0.00 / 0.00
GYGM4: Grayling RAWS : 82 / 45 / 36 / 0.00 / 0.00
INDM4: Indian River RAWS : 85 / 46 / 33 / 0.00 / 0.00
MMOM4: Mio RAWS : 81 / 45 / 36 / 0.00 / 0.00
MTNM4: Manton RAWS : 81 / 47 / 40 / 0.00 / 0.00
NMIM4: N Manitou Island : 77 / 53 / 43 / 0.00 / 0.00
RACM4: Raco RAWS : 77 / 43 / 37 / 0.00 / 0.00
REXM4: Rexton RAWS : 75 / 41 / 50 / 0.00 / 0.00
RSCM4: Roscommon RAWS : 81 / 39 / M / 0.00 / 0.00
RYDM4: Rudyard RAWS : 78 / 45 / 47 / 0.00 / 0.00
SBDM4: The Bear RAWS : 77 / 57 / 52 / 0.00 / 0.00
SCKM4: Silver Creek RAWS : 82 / 50 / 41 / 0.00 / 0.00
WLLM4: Wellston RAWS : 80 / 49 / 47 / 0.00 / 0.00

The following are precipitation reports received by the National
Weather Service in Gaylord...valid for the time period ending
around 8 pm EDT. All reports have been recorded in inches.

Spotter Reports from Eastern Upper and Northern Lower Michigan:

WATER TIME SNOW
LOCATION RAIN SNOW EQUIV PERIOD DEPTH
None Received

$$